User: anonymous   Login
Location: Unspecified
(0.0000°N, 0.0000°E)
Time: 09:29:56
(UTC+00:00)
Language:

AGILE - Orbit

View from above orbital plane
View from above orbital plane
View from above satellite
View from above satellite

Ground track
Ground track

The orbit data is extracted from the following two-line orbital elements,

1 31135U 07013A   14297.34057525  .00010589  00000-0  41200-3 0   778
2 31135 002.4682 043.5232 0015944 142.8226 217.2933 15.21270195415688
Epoch (UTC): 24 October 2014 08:10:25
Eccentricity: 0.0015944
inclination: 2.4682°
perigee height: 491 km
apogee height: 513 km
right ascension of ascending node: 43.5232°
argument of perigee: 142.8226°
revolutions per day: 15.21270195
mean anomaly at epoch: 217.2933°
orbit number at epoch: 41568

The dashed part of the orbit path shows where the satellite is in the earth's shadow,  

DLR